WB8HRV Weather Reports


Display with metric or nautical units.
time (UTC)temp
F
wind
direction
speed
MPH
gust
MPH
rain 1hr
in
rain 24hr
in
rain mn
in
humidity
%
barometer
mb
20260902231745 93 213 2.0 9.0 0.00 0.00 0.00 56 1015.3
20260902231224 93 250 2.0 7.0 0.00 0.00 0.00 56 1015.3
20260902225746 93 222 2.0 9.0 0.00 0.00 0.00 55 1015.3
20260902224745 94 228 2.0 6.0 0.00 0.00 0.00 54 1015.4
20260902223744 94 233 2.0 9.0 0.00 0.00 0.00 54 1015.3
20260902222746 94 211 4.0 12.0 0.00 0.00 0.00 54 1015.4
20260902222218 94 215 3.0 12.0 0.00 0.00 0.00 55 1015.4
20260902220742 94 229 2.0 10.0 0.00 0.00 0.00 53 1015.5
20260902220226 94 171 2.0 10.0 0.00 0.00 0.00 53 1015.4
20260902214742 94 178 3.0 10.0 0.00 0.00 0.00 53 1015.5
20260902213742 94 248 3.0 12.0 0.00 0.00 0.00 54 1015.5
20260902212745 94 259 3.0 12.0 0.00 0.00 0.00 53 1015.6
20260902211743 95 244 3.0 9.0 0.00 0.00 0.00 53 1015.5
20260902210736 94 259 2.0 8.0 0.00 0.00 0.00 52 1015.7
20260902205736 95 317 2.0 10.0 0.00 0.00 0.00 52 1015.7
20260902205217 94 238 2.0 10.0 0.00 0.00 0.00 53 1015.8
20260902203736 94 240 3.0 12.0 0.00 0.00 0.00 52 1015.9
20260902202737 94 253 2.0 12.0 0.00 0.00 0.00 52 1016.0
20260902201738 95 225 2.0 9.0 0.00 0.00 0.00 52 1016.0
20260902200737 94 248 2.0 9.0 0.00 0.00 0.00 53 1016.0
20260902195737 94 237 3.0 10.0 0.00 0.00 0.00 54 1016.2
20260902194737 94 262 2.0 10.0 0.00 0.00 0.00 53 1016.2
20260902193738 94 236 1.0 9.0 0.00 0.00 0.00 52 1016.3
20260902192734 95 225 2.0 9.0 0.00 0.00 0.00 50 1016.5
20260902191734 94 226 3.0 12.0 0.00 0.00 0.00 53 1016.7
20260902190733 94 236 3.0 11.0 0.00 0.00 0.00 52 1016.8
20260902185735 94 169 2.0 8.0 0.00 0.00 0.00 51 1016.9
20260902184727 93 229 2.0 10.0 0.00 0.00 0.00 53 1016.9
20260902184217 94 264 2.0 12.0 0.00 0.00 0.00 52 1017.0
20260902182727 93 236 2.0 8.0 0.00 0.00 0.00 54 1017.0
20260902182204 92 224 2.0 11.0 0.00 0.00 0.00 56 1017.2
20260902180727 92 236 3.0 13.0 0.00 0.00 0.00 56 1017.2
20260902175723 94 254 2.0 12.0 0.00 0.00 0.00 57 1017.3
20260902174721 93 254 3.0 12.0 0.00 0.00 0.00 56 1017.4
20260902173722 93 221 2.0 9.0 0.00 0.00 0.00 56 1017.4
20260902172723 92 237 3.0 12.0 0.00 0.00 0.00 55 1017.6
20260902171722 92 214 3.0 8.0 0.00 0.00 0.00 54 1017.7
20260902170722 92 253 3.0 12.0 0.00 0.00 0.00 56 1017.7
20260902170208 92 277 2.0 10.0 0.00 0.00 0.00 55 1017.7
20260902164721 92 228 2.0 11.0 0.00 0.00 0.00 55 1017.8
20260902163721 92 248 2.0 10.0 0.00 0.00 0.00 52 1017.9
20260902162723 92 243 2.0 6.0 0.00 0.00 0.00 55 1017.9
20260902161721 91 236 3.0 9.0 0.00 0.00 0.00 56 1017.9
20260902160723 91 299 3.0 11.0 0.00 0.00 0.00 57 1017.9
20260902155722 90 212 2.0 9.0 0.00 0.00 0.00 57 1018.0
20260902154718 91 324 2.0 8.0 0.00 0.00 0.00 58 1018.1
20260902154205 91 237 2.0 8.0 0.00 0.00 0.00 57 1018.3
20260902152715 89 284 2.0 7.0 0.00 0.00 0.00 60 1018.2
20260902151715 89 249 2.0 8.0 0.00 0.00 0.00 61 1018.3
20260902150717 89 194 2.0 5.0 0.00 0.00 0.00 63 1018.4
20260902145715 88 191 3.0 8.0 0.00 0.00 0.00 63 1018.4
20260902144715 87 233 3.0 10.0 0.00 0.00 0.00 64 1018.4
20260902143715 87 254 2.0 8.0 0.00 0.00 0.00 65 1018.4
20260902143154 87 214 2.0 8.0 0.00 0.00 0.00 66 1018.3
20260902141711 87 259 1.0 7.0 0.00 0.00 0.00 68 1018.3
20260902140711 85 274 2.0 5.0 0.00 0.00 0.00 69 1018.3
20260902135709 84 238 2.0 7.0 0.00 0.00 0.00 70 1018.2
20260902134709 84 236 2.0 6.0 0.00 0.00 0.00 70 1018.2
20260902134152 83 227 2.0 7.0 0.00 0.00 0.00 71 1018.2
20260902132711 83 225 1.0 3.0 0.00 0.00 0.00 73 1018.1
20260902131711 82 184 0.0 2.0 0.00 0.00 0.00 75 1018.2
20260902130709 81 233 1.0 4.0 0.00 0.00 0.00 76 1018.1
20260902130148 80 226 0.0 4.0 0.00 0.00 0.00 77 1018.2
20260902124709 80 226 0.0 3.0 0.00 0.00 0.00 77 1018.0
20260902123707 79 229 0.0 1.0 0.00 0.00 0.00 80 1018.0
20260902122707 78 229 0.0 0.0 0.00 0.00 0.00 81 1017.9
20260902121707 77 229 0.0 0.0 0.00 0.00 0.00 82 1017.8
20260902120708 76 229 0.0 0.0 0.00 0.00 0.00 84 1017.7
20260902115712 76 229 0.0 0.0 0.00 0.00 0.00 86 1017.7
20260902115146 75 229 0.0 0.0 0.00 0.00 0.00 87 1017.7
20260902113706 74 229 0.0 0.0 0.00 0.00 0.00 87 1017.5
20260902112704 74 229 0.0 0.0 0.00 0.00 0.00 87 1017.4
20260902111705 74 229 0.0 0.0 0.00 0.00 0.00 87 1017.2
20260902110706 74 229 0.0 0.0 0.00 0.00 0.00 87 1017.3
20260902105706 74 229 0.0 0.0 0.00 0.00 0.00 87 1017.2
20260902104703 74 229 0.0 0.0 0.00 0.00 0.00 87 1017.4
20260902103702 74 229 0.0 0.0 0.00 0.00 0.00 87 1017.3
20260902102704 74 229 0.0 0.0 0.00 0.00 0.00 87 1017.3
20260902101702 74 229 0.0 0.0 0.00 0.00 0.00 86 1017.2
20260902100704 75 229 0.0 0.0 0.00 0.00 0.00 86 1017.2
20260902095703 75 229 0.0 0.0 0.00 0.00 0.00 86 1017.2
20260902094704 75 229 0.0 0.0 0.00 0.00 0.00 86 1017.2
20260902093704 75 229 0.0 0.0 0.00 0.00 0.00 86 1017.2
20260902092704 75 229 0.0 0.0 0.00 0.00 0.00 86 1017.4
20260902091702 75 229 0.0 0.0 0.00 0.00 0.00 85 1017.2
20260902091625 75 229 0.0 0.0 0.00 0.00 0.00 85 1017.2
20260902085700 75 229 0.0 0.0 0.00 0.00 0.00 85 1017.0
20260902084659 75 229 0.0 0.0 0.00 0.00 0.00 85 1016.9
20260902083659 75 229 0.0 0.0 0.00 0.00 0.00 85 1016.8
20260902082700 76 229 0.0 0.0 0.00 0.00 0.00 85 1016.7
20260902081659 76 229 0.0 0.0 0.00 0.00 0.00 85 1016.6
20260902080659 76 229 0.0 0.0 0.00 0.00 0.00 85 1016.5
20260902075657 76 229 0.0 0.0 0.00 0.00 0.00 84 1016.6
20260902074657 76 229 0.0 0.0 0.00 0.00 0.00 84 1016.6
20260902073658 76 229 0.0 0.0 0.00 0.00 0.00 84 1016.6
20260902072657 76 229 0.0 0.0 0.00 0.00 0.00 84 1016.6
20260902071651 76 229 0.0 0.0 0.00 0.00 0.00 84 1016.5
20260902070651 76 229 0.0 0.0 0.00 0.00 0.00 83 1016.5
20260902065652 76 229 0.0 0.0 0.00 0.00 0.00 84 1016.5
20260902064651 76 229 0.0 0.0 0.00 0.00 0.00 83 1016.5
20260902064137 76 229 0.0 0.0 0.00 0.00 0.00 83 1016.5
20260902062650 77 229 0.0 0.0 0.00 0.00 0.00 83 1016.5
20260902062130 77 229 0.0 0.0 0.00 0.00 0.00 82 1016.6
20260902060649 77 229 0.0 0.0 0.00 0.00 0.00 82 1016.5
20260902055650 77 229 0.0 0.0 0.00 0.00 0.00 81 1016.5
20260902054648 78 229 0.0 0.0 0.00 0.00 0.00 81 1016.6
20260902053648 78 229 0.0 0.0 0.00 0.00 0.00 80 1016.5
20260902052649 78 229 0.0 0.0 0.00 0.00 0.00 80 1016.6
20260902051648 78 229 0.0 0.0 0.00 0.00 0.00 80 1016.6
20260902050649 78 229 0.0 0.0 0.00 0.00 0.00 79 1016.6
20260902045641 78 229 0.0 0.0 0.00 0.00 0.00 79 1016.6
20260902044643 79 229 0.0 0.0 0.00 0.00 0.00 79 1016.6
20260902043642 79 229 0.0 0.0 0.00 0.00 0.00 79 1016.5
20260902042644 79 229 0.0 0.0 0.00 0.00 0.00 79 1016.6
20260902042127 79 229 0.0 0.0 0.00 0.00 0.00 78 1016.6
20260902040642 80 229 0.0 0.0 0.00 0.00 0.00 78 1016.6
20260902035642 80 229 0.0 0.0 0.00 0.00 0.00 77 1016.7
20260902034641 80 229 0.0 0.0 0.00 0.00 0.00 76 1016.8
20260902033642 81 229 0.0 0.0 0.00 0.00 0.00 76 1016.9
20260902032640 81 229 0.0 0.0 0.00 0.00 0.00 75 1016.8
20260902031640 81 229 0.0 0.0 0.00 0.00 0.00 75 1016.7
20260902030638 82 229 0.0 0.0 0.00 0.00 0.00 74 1016.8
20260902025636 83 229 0.0 0.0 0.00 0.00 0.00 73 1016.7
20260902024634 83 229 0.0 0.0 0.00 0.00 0.00 71 1016.6
20260902024120 83 229 0.0 2.0 0.00 0.00 0.00 72 1016.6
20260902022632 83 236 0.0 0.0 0.00 0.00 0.00 73 1016.7
20260902021629 82 236 0.0 0.0 0.00 0.00 0.00 73 1016.6
20260902021108 83 236 0.0 0.0 0.00 0.00 0.00 73 1016.7
20260902020111 83 236 0.0 0.0 0.00 0.00 0.00 72 1016.8
20260902014627 83 236 0.0 0.0 0.00 0.00 0.00 71 1016.8
20260902013626 84 236 0.0 1.0 0.00 0.00 0.00 71 1016.6
20260902012626 84 236 0.0 0.0 0.00 0.00 0.00 71 1016.6
20260902011627 84 236 0.0 0.0 0.00 0.00 0.00 70 1016.4
20260902010626 85 236 0.0 1.0 0.00 0.00 0.00 69 1016.3
20260902005628 85 236 0.0 0.0 0.00 0.00 0.00 68 1016.3
20260902004625 86 236 0.0 0.0 0.00 0.00 0.00 66 1016.2
20260902004106 87 236 0.0 0.0 0.00 0.00 0.00 64 1016.2
20260902002624 88 236 0.0 0.0 0.00 0.00 0.00 62 1016.1
20260902001623 89 236 0.0 2.0 0.00 0.00 0.00 60 1016.1
20260902000624 90 236 0.0 0.0 0.00 0.00 0.00 58 1016.2
20260901235622 91 236 0.0 3.0 0.00 0.00 0.00 56 1016.4
20260901234622 92 238 1.0 4.0 0.00 0.00 0.00 55 1016.4
20260901233622 92 235 0.0 4.0 0.00 0.00 0.00 54 1016.4